[[[{"header":{"parameterUnit":"kt","parameterCategory":2,"dx":1,"dy":1,"la1":30.253999710083008,"la2":30.299108505249023,"lo1":-89.0895004272461,"lo2":-89.04439544677734,"nx":28,"ny":28,"refTime":"2022-09-25T21:00:00:Z","depth":0,"parameterNumber":1,"parameterNumberName":"U-component_of_WINDS"},"data":[-3.9071,-3.9262,-3.9256,-3.9471,-3.9502,-3.9649,-3.97,-3.9765,-3.9815,-3.9989,-4.0089,-4.0103,-4.0152,-4.027,-4.0379,-4.0383,-4.0432,-4.0503,-4.0497,-4.018,-4.0136,-4.0094,-4.005,-4.0512,-4.0513,-4.0829,-4.0832,-4.0834,-3.8838,-3.887,-3.8982,-3.9086,-3.9182,-3.9109,-3.9186,-3.9272,-3.9406,-3.9469,-3.9566,-3.972,-3.9841,-3.9866,-3.9983,-4.0073,-4.0048,-4.0106,-4.0103,-4.0113,-3.9772,-3.9725,-4.0124,-4.0124,-4.0124,-4.0124,-4.0124,-4.0124,-3.8413,-3.8528,-3.8587,-3.8708,-3.8759,-3.8829,-3.8938,-3.8951,-3.9061,-3.9181,-3.9152,-3.9304,-3.9367,-3.9504,-3.9549,-3.9668,-3.9604,-3.9667,-3.9684,-3.9702,-3.9724,-3.9276,-3.9686,-3.9685,-3.9684,-3.9683,-3.9682,0,-3.8102,-3.8089,-3.8196,-3.8301,-3.8389,-3.847,-3.8544,-3.861,-3.8582,-3.8674,-3.8807,-3.8884,-3.9034,-3.9161,-3.9268,-3.9302,-3.9242,-3.9233,-3.9277,-3.9298,-3.9302,-3.9308,-3.8758,-3.9223,-3.9219,-3.9216,-3.9214,-3.9213,-3.7679,-3.7811,-3.787,-3.7946,-3.7985,-3.8107,-3.818,-3.8144,-3.8223,-3.8309,-3.8413,-3.8537,-3.8636,-3.8851,-3.887,-3.8983,-3.8956,-3.9135,-3.8974,-3.8985,-3.8967,-3.8962,-3.8977,-3.917,-3.9176,-3.918,-3.9184,0,-3.7442,-3.7431,-3.7635,-3.768,-3.7696,-3.7837,-3.7877,-3.799,-3.7991,-3.8148,-3.8182,-3.8187,-3.8319,-3.8308,-3.8457,-3.8447,-3.8685,-3.8652,-3.8663,-3.8659,-3.8822,-3.8809,-3.9344,-3.9414,-3.8928,-3.8932,-3.8936,0,-3.708,-3.7255,-3.723,-3.7349,-3.7543,-3.7503,-3.7696,-3.7717,-3.777,-3.7893,-3.7818,-3.7935,-3.7902,-3.8018,-3.8004,-3.8195,-3.8221,-3.8228,-3.8224,-3.824,-3.824,-3.8288,-3.8268,-3.8201,-3.8199,-3.8196,-3.8194,0,-3.6716,-3.6906,-3.7098,-3.714,-3.7208,-3.7299,-3.7332,-3.739,-3.7463,-3.7553,-3.76,-3.7708,-3.777,-3.7856,-3.7839,-3.773,-3.807,-3.7917,-3.8078,-3.8079,-3.816,-3.8157,-3.8625,-3.8191,-3.819,-3.8189,-3.8188,0,-3.6424,-3.6514,-3.6793,-3.6848,-3.69,-3.7026,-3.7131,-3.7236,-3.7304,-3.7303,-3.7374,-3.7326,-3.7488,-3.7338,-3.7563,-3.7426,-3.7491,-3.7511,-3.7522,-3.7543,-3.7377,-3.7652,-3.8093,-3.8142,-3.7552,-3.7547,-3.7542,0,-3.6013,-3.629,-3.6259,-3.6525,-3.6652,-3.6561,-3.67,-3.6762,-3.6773,-3.6883,-3.6894,-3.7022,-3.6906,-3.6946,-3.7057,-3.7076,-3.7252,-3.7051,-3.7219,-3.7225,-3.7209,-3.7614,-3.7686,-3.7996,-3.7474,-3.7481,-3.7487,0,-3.5694,-3.5773,-3.5823,-3.5871,-3.5945,-3.6051,-3.6211,-3.6327,-3.6403,-3.6479,-3.6616,-3.679,-3.6713,-3.6778,-3.6751,-3.6868,-3.7132,-3.677,-3.6771,-3.684,-3.7437,-3.7505,-3.7557,-3.7088,-3.7096,-3.7102,-3.7432,0,-3.5266,-3.5402,-3.5534,-3.5641,-3.572,-3.5884,-3.5872,-3.5957,-3.5921,-3.593,-3.6127,-3.6176,-3.6298,-3.6351,-3.6319,-3.659,-3.6545,-3.646,-3.632,-3.6582,-3.6692,-3.6736,-3.6158,-3.6153,-3.615,-3.6147,0,0,-3.4879,-3.5074,-3.5035,-3.5188,-3.5254,-3.5158,-3.5336,-3.5388,-3.5498,-3.5547,-3.5465,-3.5723,-3.5769,-3.6011,-3.6091,-3.6138,-3.6188,-3.6097,-3.6456,-3.649,-3.6522,-3.6639,-3.6685,-3.6141,-3.6139,-3.6138,-3.6137,0,-3.4721,-3.4764,-3.4938,-3.499,-3.5065,-3.5065,-3.5106,-3.5166,-3.518,-3.5371,-3.5294,-3.541,-3.5617,-3.5677,-3.5734,-3.6065,-3.6003,-3.6101,-3.6285,-3.642,-3.6459,-3.6494,-3.6617,-3.666,-3.6128,-3.6129,-3.6129,0,-3.441,-3.4451,-3.4534,-3.4674,-3.4724,-3.4857,-3.4703,-3.485,-3.4949,-3.4842,-3.5035,-3.5062,-3.5139,-3.5367,-3.5469,-3.54,-3.5837,-3.5695,-3.5718,-3.5731,-3.5862,-3.5909,-3.5951,-3.5399,-3.5397,-3.5394,0,0,-3.4276,-3.4402,-3.4438,-3.464,-3.4676,-3.4678,-3.4747,-3.472,-3.479,-3.4819,-3.4853,-3.4926,-3.5045,-3.5126,-3.5238,-3.5489,-3.5505,-3.5606,-3.564,-3.5669,-3.5697,-3.5835,-3.5882,-3.5385,-3.5385,-3.5385,0,0,-3.4213,-3.4262,-3.4214,-3.4447,-3.4515,-3.4566,-3.4691,-3.4635,-3.4734,-3.4715,-3.4678,-3.4696,-3.4909,-3.494,-3.4814,-3.5189,-3.5048,-3.5078,-3.5162,-3.5206,-3.524,-3.5231,-3.4669,0,0,0,0,0,-3.4047,-3.4255,-3.4211,-3.4248,-3.4428,-3.4589,-3.4612,-3.4586,-3.4487,-3.4587,-3.4606,-3.4534,-3.4864,-3.4752,-3.4791,-3.4934,-3.5264,-3.5285,-3.5305,-3.5473,-3.5518,-3.5556,0,0,0,0,0,0,-3.4062,-3.4107,-3.4205,-3.4265,-3.4305,-3.4581,-3.4409,-3.4407,-3.4476,-3.4459,-3.4532,-3.4536,-3.4519,-3.4731,-3.4766,-3.4902,-3.4657,-3.5272,-3.529,-3.5307,-3.5488,-3.5525,-3.5557,0,0,0,0,0,-3.4073,-3.4109,-3.4404,-3.4262,-3.4297,-3.4311,-3.44,-3.4398,-3.4451,-3.4482,-3.4484,-3.4425,-3.4523,-3.4551,-3.4752,-3.4887,-3.4632,-3.4645,-3.5284,-3.5298,-3.5311,-3.5507,0,0,0,0,0,0,-3.4081,-3.4109,-3.441,-3.442,-3.4182,-3.4295,-3.4312,-3.439,-3.4469,-3.4473,-3.4372,-3.4358,-3.4529,-3.4549,-3.4572,-3.4883,-3.4612,-3.4626,-3.4634,-3.5295,-3.5306,-3.5316,0,0,0,0,0,0,-3.4089,-3.4118,-3.4415,-3.4315,-3.4313,-3.4281,-3.4296,-3.4463,-3.4471,-3.4354,-3.4345,-3.4365,-3.4496,-3.455,-3.4566,-3.4828,-3.4596,-3.4609,-3.4618,-3.4624,-3.5304,-3.5313,0,0,0,0,0,0,-3.4101,-3.4126,-3.4312,-3.4311,-3.4309,-3.4416,-3.4428,-3.4614,-3.4383,-3.4352,-3.4362,-3.4352,-3.4499,-3.4515,-3.4563,-3.4818,-3.4825,-3.4597,-3.4606,-3.4612,-3.4616,0,0,0,0,0,0,0,-3.411,-3.395,-3.4353,-3.4308,-3.4305,-3.451,-3.4513,-3.4515,-3.4381,-3.4372,-3.4364,-3.4356,-3.4523,-3.4537,-3.4551,-3.481,0,0,-3.4596,-3.4602,0,0,0,0,0,0,0,0,-3.3939,-3.3948,-3.4353,-3.4355,-3.4357,-3.451,-3.4512,-3.4515,-3.4379,-3.4372,-3.4366,-3.4359,-3.4526,-3.4538,-3.4549,0,0,0,0,0,0,0,0,0,0,0,0,0,0,0,-3.4353,-3.4355,0,-3.4511,-3.4512,-3.4514,-3.4378,-3.4373,-3.4367,-3.4362,-3.453,-3.4539,-3.4549,0,0,0,0,0,0,0,0,0,0,0,0,0,0,0,0,0,0,0,0,0,0,0,0,0,0,0,0,0,0,0,0,0,0,0,0,0,0,0,0,0,0,0,0,0,0,0,0,0,0,0,0,0,0,0,0,0,0,0,0,0,0,0,0,0,0,0,0,0]}],[{"header":{"parameterUnit":"kt","parameterCategory":2,"dx":1,"dy":1,"la1":30.253999710083008,"la2":30.299108505249023,"lo1":-89.0895004272461,"lo2":-89.04439544677734,"nx":28,"ny":28,"refTime":"2022-09-25T21:00:00:Z","depth":0,"parameterNumber":2,"parameterNumberName":"V-component_of_WINDS"},"data":[-12.1395,-12.1605,-12.1585,-12.1813,-12.1831,-12.1982,-12.2028,-12.2085,-12.2123,-12.2296,-12.2391,-12.2386,-12.2412,-12.2516,-12.2614,-12.2608,-12.2652,-12.2743,-12.2721,-12.2339,-12.2284,-12.2232,-12.2182,-12.2753,-12.2753,-12.312,-12.3123,-12.3126,-12.1117,-12.1139,-12.1254,-12.1351,-12.1448,-12.1347,-12.1413,-12.15,-12.1636,-12.1684,-12.1776,-12.1925,-12.2038,-12.2032,-12.2135,-12.2228,-12.2185,-12.2257,-12.225,-12.2255,-12.1846,-12.1794,-12.2291,-12.2291,-12.2291,-12.229,-12.229,-12.229,-12.0604,-12.0731,-12.0777,-12.0901,-12.0942,-12.1006,-12.1121,-12.1114,-12.1223,-12.1332,-12.1281,-12.1432,-12.1473,-12.1584,-12.1614,-12.1728,-12.1642,-12.1713,-12.1731,-12.175,-12.1775,-12.125,-12.1744,-12.1742,-12.1741,-12.1739,-12.1738,0,-12.0221,-12.0195,-12.0303,-12.0406,-12.0494,-12.057,-12.0635,-12.0705,-12.0635,-12.0728,-12.0858,-12.0929,-12.1066,-12.1184,-12.1273,-12.1289,-12.119,-12.1177,-12.1226,-12.1254,-12.1268,-12.1263,-12.0597,-12.1163,-12.1158,-12.1154,-12.1151,-12.1149,-11.9702,-11.9853,-11.9889,-11.9968,-11.9998,-12.0126,-12.0196,-12.0124,-12.0201,-12.0267,-12.038,-12.0497,-12.0588,-12.0797,-12.0781,-12.0882,-12.0835,-12.1054,-12.0849,-12.0871,-12.0838,-12.0831,-12.0845,-12.1095,-12.1102,-12.1108,-12.1112,0,-11.9412,-11.9375,-11.96,-11.9619,-11.9628,-11.9789,-11.9803,-11.9924,-11.9902,-12.0065,-12.0098,-12.0063,-12.0191,-12.014,-12.0273,-12.0242,-12.05,-12.045,-12.0485,-12.0473,-12.0664,-12.0647,-12.1291,-12.1372,-12.0779,-12.0785,-12.079,0,-11.8955,-11.9154,-11.9086,-11.9219,-11.9437,-11.9358,-11.9575,-11.9578,-11.9613,-11.974,-11.9621,-11.9742,-11.9657,-11.9771,-11.9725,-11.9926,-11.995,-11.9938,-11.9924,-11.995,-11.9952,-11.9988,-11.9961,-11.9885,-11.9882,-11.9879,-11.9876,0,-11.8505,-11.8701,-11.8916,-11.8955,-11.8994,-11.9096,-11.9116,-11.9153,-11.9222,-11.9302,-11.9346,-11.9444,-11.9498,-11.9574,-11.9515,-11.9379,-11.9759,-11.9559,-11.9747,-11.9749,-11.9834,-11.983,-12.0413,-11.9872,-11.9871,-11.987,-11.9869,0,-11.8129,-11.8217,-11.8534,-11.8563,-11.8617,-11.8758,-11.8851,-11.8959,-11.9007,-11.8988,-11.905,-11.8964,-11.9135,-11.894,-11.9174,-11.9013,-11.9072,-11.9076,-11.9088,-11.9101,-11.8884,-11.9221,-11.9782,-11.9838,-11.9112,-11.9105,-11.91,0,-11.7625,-11.7935,-11.787,-11.8172,-11.8308,-11.8166,-11.8319,-11.8366,-11.8354,-11.8464,-11.8447,-11.8573,-11.8417,-11.8449,-11.8572,-11.8559,-11.8769,-11.8529,-11.8686,-11.8692,-11.8679,-11.9194,-11.9291,-11.9665,-11.9018,-11.9027,-11.9033,0,-11.7229,-11.7277,-11.7336,-11.7375,-11.7427,-11.7539,-11.7716,-11.7824,-11.7902,-11.7966,-11.8111,-11.8286,-11.8175,-11.8229,-11.8168,-11.8299,-11.8624,-11.8161,-11.8161,-11.8247,-11.8972,-11.9064,-11.9127,-11.8554,-11.8564,-11.8572,-11.8968,0,-11.667,-11.682,-11.6976,-11.7069,-11.7148,-11.7334,-11.7282,-11.7371,-11.7305,-11.7288,-11.7499,-11.7522,-11.763,-11.7687,-11.7623,-11.7939,-11.7878,-11.7758,-11.7564,-11.7903,-11.8032,-11.8085,-11.7376,-11.737,-11.7365,-11.7361,0,0,-11.6197,-11.641,-11.6333,-11.6504,-11.6565,-11.6415,-11.6618,-11.6659,-11.6747,-11.6792,-11.6683,-11.6934,-11.6958,-11.7219,-11.7321,-11.7364,-11.7415,-11.7299,-11.7742,-11.7785,-11.7824,-11.7963,-11.8019,-11.7352,-11.735,-11.7348,-11.7346,0,-11.5982,-11.6015,-11.6218,-11.6259,-11.6316,-11.6288,-11.6337,-11.6365,-11.6363,-11.657,-11.644,-11.656,-11.6763,-11.6804,-11.6852,-11.7266,-11.716,-11.7303,-11.7544,-11.7693,-11.7742,-11.7786,-11.7933,-11.7987,-11.7334,-11.7335,-11.7335,0,-11.5583,-11.5607,-11.5699,-11.5834,-11.5869,-11.6012,-11.5797,-11.5956,-11.606,-11.5883,-11.6091,-11.6096,-11.6147,-11.6402,-11.6513,-11.6417,-11.6932,-11.6759,-11.679,-11.6801,-11.6942,-11.7002,-11.7055,-11.6355,-11.6352,-11.6349,0,0,-11.5404,-11.5543,-11.5544,-11.5784,-11.5815,-11.5776,-11.5846,-11.5788,-11.5839,-11.586,-11.5865,-11.5917,-11.6033,-11.6111,-11.6217,-11.6504,-11.6508,-11.6641,-11.6687,-11.6725,-11.6757,-11.6908,-11.6967,-11.6337,-11.6337,-11.6336,0,0,-11.5318,-11.533,-11.5256,-11.5528,-11.5583,-11.5597,-11.5744,-11.5652,-11.5743,-11.5716,-11.5622,-11.5632,-11.5868,-11.5879,-11.5725,-11.6147,-11.5956,-11.5992,-11.6132,-11.619,-11.6235,-11.6228,-11.5505,0,0,0,0,0,-11.5072,-11.5328,-11.5261,-11.5299,-11.5467,-11.5635,-11.5655,-11.5586,-11.5453,-11.5571,-11.556,-11.5442,-11.5776,-11.5638,-11.5675,-11.5848,-11.6183,-11.621,-11.6236,-11.6484,-11.6545,-11.6596,0,0,0,0,0,0,-11.5087,-11.5134,-11.5254,-11.528,-11.5317,-11.5625,-11.5384,-11.5372,-11.5438,-11.5413,-11.5448,-11.5443,-11.5385,-11.5614,-11.5648,-11.5814,-11.5493,-11.6193,-11.6217,-11.6238,-11.6505,-11.6555,-11.6597,0,0,0,0,0,-11.5098,-11.5135,-11.5424,-11.5276,-11.5308,-11.5277,-11.5373,-11.5361,-11.5411,-11.5395,-11.5386,-11.5353,-11.5392,-11.5416,-11.5634,-11.58,-11.5469,-11.5482,-11.6209,-11.6227,-11.6243,-11.6529,0,0,0,0,0,0,-11.5106,-11.5124,-11.5429,-11.5436,-11.5175,-11.5258,-11.5269,-11.5353,-11.5387,-11.5382,-11.5294,-11.5274,-11.54,-11.5417,-11.5436,-11.5799,-11.5449,-11.5462,-11.547,-11.6222,-11.6237,-11.625,0,0,0,0,0,0,-11.5103,-11.5132,-11.5432,-11.5309,-11.5301,-11.5242,-11.5252,-11.5426,-11.5389,-11.5284,-11.5268,-11.5285,-11.5369,-11.5419,-11.5433,-11.5708,-11.5433,-11.5446,-11.5455,-11.5461,-11.6234,-11.6245,0,0,0,0,0,0,-11.5114,-11.5138,-11.5306,-11.53,-11.5293,-11.5366,-11.5394,-11.5569,-11.5287,-11.5285,-11.5259,-11.5247,-11.5375,-11.5387,-11.5432,-11.5702,-11.5706,-11.5434,-11.5442,-11.5449,-11.5453,0,0,0,0,0,0,0,-11.5122,-11.4979,-11.5388,-11.5294,-11.5286,-11.5501,-11.5503,-11.5505,-11.5284,-11.5273,-11.5262,-11.5252,-11.536,-11.5374,-11.5388,-11.5697,0,0,-11.5432,-11.5439,0,0,0,0,0,0,0,0,-11.4967,-11.4976,-11.5388,-11.5389,-11.5391,-11.5501,-11.5503,-11.5504,-11.5282,-11.5273,-11.5265,-11.5256,-11.5363,-11.5375,-11.5386,0,0,0,0,0,0,0,0,0,0,0,0,0,0,0,-11.5388,-11.5389,0,-11.5502,-11.5503,-11.5504,-11.5281,-11.5274,-11.5266,-11.5259,-11.5367,-11.5376,-11.5386,0,0,0,0,0,0,0,0,0,0,0,0,0,0,0,0,0,0,0,0,0,0,0,0,0,0,0,0,0,0,0,0,0,0,0,0,0,0,0,0,0,0,0,0,0,0,0,0,0,0,0,0,0,0,0,0,0,0,0,0,0,0,0,0,0,0,0,0,0]}]]]